SAS821 ENGM-EHAM

Flight info

Callsign SAS821
Flight time 1h 34m
Altitude 36000
Route VIPPA DCT KUGAL DCT EEL DCT BLUFA
Aircraft E195/M-SDE3GILORVW/S

Departure

Time 2026-05-06 12:08
Airport Oslo-Gardermoen International Airport (ENGM)

Arrival

Time 2026-05-06 13:43
Airport Amsterdam Airport Schiphol (EHAM)
Time Latitude Longitude Altitude Speed Heading
2026-05-06 11:52 60.19590 11.09278 686 ft 0 kts 196°
2026-05-06 11:56 60.19592 11.09279 686 ft 1 kts 196°
2026-05-06 11:56 60.19606 11.09288 686 ft 2 kts 195°
2026-05-06 11:56 60.19621 11.09296 686 ft 2 kts 196°
2026-05-06 11:57 60.19635 11.09304 686 ft 2 kts 196°
2026-05-06 11:57 60.19650 11.09313 686 ft 2 kts 196°
2026-05-06 11:57 60.19664 11.09322 686 ft 2 kts 210°
2026-05-06 11:57 60.19675 11.09342 686 ft 2 kts 234°
2026-05-06 11:58 60.19682 11.09369 686 ft 2 kts 258°
2026-05-06 11:58 60.19682 11.09399 686 ft 2 kts 282°
2026-05-06 11:58 60.19677 11.09427 686 ft 1 kts 288°
2026-05-06 11:58 60.19676 11.09434 686 ft 0 kts 285°
2026-05-06 12:02 60.19677 11.09428 686 ft 1 kts 285°
2026-05-06 12:02 60.19681 11.09399 686 ft 3 kts 285°
2026-05-06 12:02 60.19690 11.09339 686 ft 5 kts 286°
2026-05-06 12:02 60.19704 11.09245 686 ft 8 kts 286°
2026-05-06 12:03 60.19722 11.09117 686 ft 10 kts 285°
2026-05-06 12:03 60.19746 11.08953 686 ft 13 kts 286°
2026-05-06 12:03 60.19774 11.08759 686 ft 12 kts 291°
2026-05-06 12:03 60.19846 11.08714 686 ft 12 kts 14°
2026-05-06 12:04 60.19934 11.08764 686 ft 14 kts 16°
2026-05-06 12:04 60.20033 11.08822 686 ft 15 kts 15°
2026-05-06 12:04 60.20142 11.08885 686 ft 17 kts 16°
2026-05-06 12:04 60.20260 11.08953 686 ft 18 kts 16°
2026-05-06 12:05 60.20383 11.09024 686 ft 19 kts 16°
2026-05-06 12:05 60.20513 11.09099 686 ft 19 kts 15°
2026-05-06 12:05 60.20649 11.09177 686 ft 20 kts 16°
2026-05-06 12:05 60.20789 11.09256 686 ft 21 kts 15°
2026-05-06 12:06 60.20934 11.09341 686 ft 22 kts 16°
2026-05-06 12:06 60.21085 11.09430 686 ft 22 kts 16°
2026-05-06 12:06 60.21239 11.09518 686 ft 23 kts 15°
2026-05-06 12:06 60.21396 11.09609 686 ft 23 kts 16°
2026-05-06 12:07 60.21507 11.09617 686 ft 15 kts 329°
2026-05-06 12:07 60.21558 11.09432 686 ft 15 kts 286°
2026-05-06 12:07 60.21571 11.09211 686 ft 16 kts 248°
2026-05-06 12:07 60.21479 11.09091 686 ft 18 kts 196°
2026-05-06 12:08 60.21142 11.08897 686 ft 84 kts 195°
2026-05-06 12:08 60.20380 11.08459 687 ft 142 kts 195°
2026-05-06 12:08 60.19335 11.07842 905 ft 166 kts 197°
2026-05-06 12:08 60.18233 11.06980 1468 ft 178 kts 222°
2026-05-06 12:09 60.17614 11.04920 2317 ft 179 kts 247°
2026-05-06 12:09 60.17069 11.02537 2868 ft 198 kts 239°
2026-05-06 12:09 60.16254 11.00183 3493 ft 214 kts 230°
2026-05-06 12:09 60.15219 10.97860 4022 ft 238 kts 225°
2026-05-06 12:10 60.14032 10.95333 4611 ft 259 kts 238°
2026-05-06 12:10 60.13284 10.92027 5493 ft 267 kts 246°
2026-05-06 12:10 60.12560 10.88667 6537 ft 268 kts 246°
2026-05-06 12:10 60.11807 10.85296 7653 ft 266 kts 245°
2026-05-06 12:11 60.11051 10.81968 8710 ft 266 kts 245°
2026-05-06 12:11 60.10289 10.78646 9687 ft 267 kts 245°
2026-05-06 12:11 60.09511 10.75274 10621 ft 270 kts 245°
2026-05-06 12:11 60.08718 10.71849 11429 ft 277 kts 246°
2026-05-06 12:12 60.07897 10.68312 12182 ft 285 kts 246°
2026-05-06 12:12 60.07056 10.64693 12987 ft 292 kts 246°
2026-05-06 12:12 60.06198 10.61013 13907 ft 294 kts 246°
2026-05-06 12:12 60.05230 10.57412 14879 ft 296 kts 233°
2026-05-06 12:13 60.03561 10.55040 15811 ft 308 kts 206°
2026-05-06 12:13 60.01430 10.54125 16667 ft 317 kts 198°
2026-05-06 12:13 59.99258 10.53393 17503 ft 320 kts 198°
2026-05-06 12:13 59.97072 10.52658 18289 ft 323 kts 198°
2026-05-06 12:14 59.94879 10.51924 19110 ft 325 kts 198°
2026-05-06 12:14 59.92661 10.51180 19910 ft 327 kts 198°
2026-05-06 12:14 59.90399 10.50423 20722 ft 329 kts 198°
2026-05-06 12:14 59.88171 10.49680 21459 ft 332 kts 199°
2026-05-06 12:15 59.85889 10.48918 22246 ft 334 kts 199°
2026-05-06 12:15 59.83613 10.48161 23023 ft 335 kts 199°
2026-05-06 12:15 59.81302 10.47392 23785 ft 336 kts 199°
2026-05-06 12:15 59.79028 10.46636 24450 ft 339 kts 198°
2026-05-06 12:16 59.76692 10.45862 25133 ft 342 kts 199°
2026-05-06 12:16 59.74369 10.45092 25774 ft 344 kts 198°
2026-05-06 12:16 59.72002 10.44308 26374 ft 347 kts 198°
2026-05-06 12:16 59.69610 10.43519 26979 ft 350 kts 198°
2026-05-06 12:17 59.67212 10.42728 27578 ft 352 kts 198°
2026-05-06 12:17 59.64812 10.41938 28155 ft 354 kts 198°
2026-05-06 12:17 59.62408 10.41148 28726 ft 356 kts 198°
2026-05-06 12:17 59.59960 10.40344 29277 ft 358 kts 198°
2026-05-06 12:18 59.57504 10.39526 29820 ft 360 kts 198°
2026-05-06 12:18 59.55042 10.38691 30370 ft 361 kts 198°
2026-05-06 12:18 59.52557 10.37848 30845 ft 364 kts 198°
2026-05-06 12:18 59.50057 10.37004 31268 ft 368 kts 198°
2026-05-06 12:19 59.47560 10.36161 31669 ft 372 kts 198°
2026-05-06 12:19 59.44998 10.35298 32078 ft 375 kts 198°
2026-05-06 12:19 59.42481 10.34452 32525 ft 377 kts 197°
2026-05-06 12:19 59.39905 10.33589 32950 ft 378 kts 197°
2026-05-06 12:20 59.37425 10.32758 33343 ft 378 kts 197°
2026-05-06 12:20 59.34836 10.31892 33779 ft 378 kts 197°
2026-05-06 12:20 59.32254 10.31028 34124 ft 379 kts 196°
2026-05-06 12:20 59.29659 10.30162 34476 ft 379 kts 197°
2026-05-06 12:21 59.27078 10.29302 34820 ft 380 kts 196°
2026-05-06 12:21 59.24688 10.28506 35094 ft 381 kts 196°
2026-05-06 12:21 59.22097 10.27646 35394 ft 382 kts 196°
2026-05-06 12:21 59.19459 10.26771 35670 ft 383 kts 196°
2026-05-06 12:22 59.16868 10.25949 35882 ft 381 kts 192°
2026-05-06 12:22 59.14203 10.25548 35929 ft 387 kts 191°
2026-05-06 12:22 59.08725 10.24810 35961 ft 404 kts 190°
2026-05-06 12:23 59.03023 10.24041 35948 ft 416 kts 190°
2026-05-06 12:23 58.97286 10.23270 35945 ft 416 kts 190°
2026-05-06 12:24 58.91752 10.21022 35947 ft 404 kts 205°
2026-05-06 12:24 58.86518 10.17146 35942 ft 402 kts 205°
2026-05-06 12:25 58.81300 10.13302 35946 ft 404 kts 206°
2026-05-06 12:25 58.76110 10.09492 35936 ft 402 kts 205°
2026-05-06 12:26 58.70870 10.05658 35940 ft 403 kts 205°
2026-05-06 12:26 58.65655 10.01854 35938 ft 402 kts 205°
2026-05-06 12:27 58.60446 9.98066 35950 ft 402 kts 205°
2026-05-06 12:27 58.55258 9.94305 35956 ft 403 kts 205°
2026-05-06 12:28 58.50037 9.90532 35964 ft 402 kts 205°
2026-05-06 12:28 58.44811 9.86769 35949 ft 403 kts 205°
2026-05-06 12:29 58.39570 9.83006 35946 ft 404 kts 205°
2026-05-06 12:29 58.34326 9.79253 35950 ft 405 kts 205°
2026-05-06 12:30 58.29087 9.75516 35945 ft 404 kts 205°
2026-05-06 12:30 58.23878 9.71811 35942 ft 404 kts 205°
2026-05-06 12:31 58.18623 9.68086 35950 ft 403 kts 205°
2026-05-06 12:31 58.13385 9.64385 35940 ft 404 kts 205°
2026-05-06 12:32 58.08122 9.60677 35954 ft 404 kts 205°
2026-05-06 12:32 58.02885 9.57000 35941 ft 403 kts 205°
2026-05-06 12:33 57.97649 9.53334 35950 ft 404 kts 205°
2026-05-06 12:33 57.92390 9.49663 35935 ft 403 kts 205°
2026-05-06 12:34 57.87153 9.46021 35951 ft 405 kts 205°
2026-05-06 12:34 57.81863 9.42352 35955 ft 404 kts 205°
2026-05-06 12:35 57.76598 9.38713 35952 ft 405 kts 205°
2026-05-06 12:35 57.71350 9.35096 35956 ft 405 kts 204°
2026-05-06 12:36 57.66061 9.31462 35956 ft 407 kts 204°
2026-05-06 12:36 57.60768 9.27837 35958 ft 407 kts 204°
2026-05-06 12:37 57.55497 9.24237 35954 ft 406 kts 204°
2026-05-06 12:37 57.50177 9.20616 35958 ft 407 kts 204°
2026-05-06 12:38 57.44878 9.17020 35951 ft 407 kts 203°
2026-05-06 12:38 57.39580 9.13437 35953 ft 408 kts 203°
2026-05-06 12:39 57.34263 9.09851 35956 ft 409 kts 203°
2026-05-06 12:39 57.28948 9.06277 35961 ft 409 kts 203°
2026-05-06 12:40 57.23648 9.02726 35958 ft 410 kts 203°
2026-05-06 12:40 57.18312 8.99160 35947 ft 411 kts 203°
2026-05-06 12:41 57.12958 8.95594 35949 ft 411 kts 203°
2026-05-06 12:41 57.07605 8.92039 35952 ft 411 kts 203°
2026-05-06 12:42 57.02262 8.88501 35951 ft 411 kts 203°
2026-05-06 12:42 56.96907 8.84967 35940 ft 410 kts 203°
2026-05-06 12:43 56.91577 8.81460 35944 ft 411 kts 203°
2026-05-06 12:43 56.86189 8.77925 35951 ft 411 kts 203°
2026-05-06 12:44 56.80846 8.74431 35942 ft 411 kts 203°
2026-05-06 12:44 56.75442 8.70907 35952 ft 413 kts 203°
2026-05-06 12:45 56.70076 8.67420 35943 ft 412 kts 203°
2026-05-06 12:46 56.62000 8.62189 35951 ft 413 kts 203°
2026-05-06 12:46 56.56630 8.58725 35949 ft 412 kts 202°
2026-05-06 12:47 56.51230 8.55252 35950 ft 413 kts 202°
2026-05-06 12:47 56.45832 8.51791 35948 ft 413 kts 202°
2026-05-06 12:48 56.40435 8.48341 35951 ft 413 kts 202°
2026-05-06 12:48 56.35020 8.44890 35937 ft 414 kts 202°
2026-05-06 12:49 56.29603 8.41447 35955 ft 414 kts 202°
2026-05-06 12:49 56.24189 8.38017 35943 ft 414 kts 202°
2026-05-06 12:50 56.18786 8.34605 35945 ft 414 kts 202°
2026-05-06 12:50 56.13360 8.31187 35953 ft 415 kts 201°
2026-05-06 12:51 56.07925 8.27775 35962 ft 416 kts 201°
2026-05-06 12:51 56.02471 8.24361 35953 ft 416 kts 201°
2026-05-06 12:52 55.97033 8.20967 35954 ft 416 kts 201°
2026-05-06 12:52 55.91563 8.17564 35953 ft 417 kts 201°
2026-05-06 12:53 55.86089 8.14167 35962 ft 418 kts 201°
2026-05-06 12:53 55.80645 8.10800 35964 ft 417 kts 201°
2026-05-06 12:54 55.75144 8.07407 35955 ft 419 kts 201°
2026-05-06 12:54 55.69681 8.04048 35954 ft 419 kts 201°
2026-05-06 12:55 55.64166 8.00668 35951 ft 419 kts 201°
2026-05-06 12:55 55.58704 7.97329 35953 ft 419 kts 201°
2026-05-06 12:56 55.53201 7.93975 35951 ft 420 kts 201°
2026-05-06 12:56 55.47698 7.90632 35950 ft 420 kts 201°
2026-05-06 12:57 55.42162 7.87278 35941 ft 422 kts 201°
2026-05-06 12:57 55.36647 7.83947 35935 ft 422 kts 201°
2026-05-06 12:58 55.31106 7.80610 35939 ft 421 kts 201°
2026-05-06 12:58 55.25574 7.77289 35936 ft 422 kts 201°
2026-05-06 12:59 55.20060 7.73987 35935 ft 423 kts 201°
2026-05-06 12:59 55.14512 7.70676 35934 ft 422 kts 201°
2026-05-06 13:00 55.08946 7.67362 35937 ft 424 kts 201°
2026-05-06 13:00 55.03381 7.64060 35931 ft 424 kts 201°
2026-05-06 13:01 54.97775 7.60839 35927 ft 425 kts 199°
2026-05-06 13:01 54.92144 7.57790 35924 ft 426 kts 199°
2026-05-06 13:02 54.86492 7.54732 35940 ft 426 kts 199°
2026-05-06 13:02 54.80853 7.51689 35940 ft 426 kts 199°
2026-05-06 13:03 54.75220 7.48658 35934 ft 427 kts 199°
2026-05-06 13:03 54.69593 7.45639 35935 ft 427 kts 199°
2026-05-06 13:04 54.63931 7.42609 35928 ft 427 kts 199°
2026-05-06 13:04 54.58263 7.39586 35934 ft 428 kts 199°
2026-05-06 13:05 54.52594 7.36571 35935 ft 429 kts 199°
2026-05-06 13:05 54.46865 7.33534 35933 ft 430 kts 198°
2026-05-06 13:06 54.41164 7.30519 35931 ft 430 kts 198°
2026-05-06 13:06 54.35470 7.27517 35923 ft 431 kts 198°
2026-05-06 13:07 54.29767 7.24519 35917 ft 430 kts 198°
2026-05-06 13:07 54.24060 7.21528 35910 ft 430 kts 198°
2026-05-06 13:08 54.18333 7.18535 35909 ft 430 kts 198°
2026-05-06 13:08 54.12635 7.15565 35910 ft 430 kts 198°
2026-05-06 13:09 54.06945 7.12609 35911 ft 431 kts 198°
2026-05-06 13:09 54.01181 7.09622 35906 ft 432 kts 198°
2026-05-06 13:10 53.95445 7.06658 35903 ft 433 kts 198°
2026-05-06 13:10 53.89768 7.03735 35878 ft 416 kts 198°
2026-05-06 13:10 53.87045 7.02335 35635 ft 405 kts 198°
2026-05-06 13:11 53.84349 7.00950 35110 ft 403 kts 198°
2026-05-06 13:11 53.79038 6.98228 35102 ft 411 kts 198°
2026-05-06 13:11 53.76286 6.96821 34972 ft 420 kts 198°
2026-05-06 13:12 53.73488 6.95392 34511 ft 420 kts 198°
2026-05-06 13:12 53.70689 6.93965 34022 ft 418 kts 197°
2026-05-06 13:12 53.67932 6.92562 33551 ft 416 kts 197°
2026-05-06 13:12 53.65176 6.91160 33100 ft 416 kts 197°
2026-05-06 13:13 53.62416 6.89759 32641 ft 418 kts 197°
2026-05-06 13:13 53.59631 6.88346 32174 ft 418 kts 197°
2026-05-06 13:13 53.56844 6.86934 31715 ft 419 kts 197°
2026-05-06 13:13 53.54050 6.85521 31242 ft 420 kts 197°
2026-05-06 13:14 53.51293 6.84129 30765 ft 418 kts 197°
2026-05-06 13:14 53.48517 6.82730 30306 ft 415 kts 197°
2026-05-06 13:14 53.45750 6.81336 29845 ft 412 kts 197°
2026-05-06 13:14 53.43051 6.79979 29393 ft 410 kts 197°
2026-05-06 13:15 53.40297 6.78595 28937 ft 407 kts 197°
2026-05-06 13:15 53.37626 6.77255 28493 ft 406 kts 197°
2026-05-06 13:15 53.34928 6.75904 28045 ft 403 kts 197°
2026-05-06 13:15 53.32245 6.74561 27591 ft 402 kts 197°
2026-05-06 13:16 53.29590 6.73234 27147 ft 400 kts 197°
2026-05-06 13:16 53.26942 6.71913 26714 ft 398 kts 197°
2026-05-06 13:16 53.24292 6.70593 26276 ft 396 kts 197°
2026-05-06 13:16 53.21682 6.69294 25846 ft 394 kts 197°
2026-05-06 13:17 53.19045 6.67983 25409 ft 392 kts 197°
2026-05-06 13:17 53.16478 6.66584 24958 ft 390 kts 206°
2026-05-06 13:17 53.14156 6.64356 24557 ft 388 kts 212°
2026-05-06 13:17 53.11867 6.62016 24113 ft 386 kts 212°
2026-05-06 13:18 53.09606 6.59706 23693 ft 383 kts 212°
2026-05-06 13:18 53.07353 6.57404 23275 ft 381 kts 212°
2026-05-06 13:18 53.05080 6.55085 22851 ft 380 kts 212°
2026-05-06 13:18 53.02861 6.52824 22434 ft 378 kts 212°
2026-05-06 13:19 53.00621 6.50545 22017 ft 376 kts 212°
2026-05-06 13:19 52.98403 6.48290 21610 ft 375 kts 212°
2026-05-06 13:19 52.96205 6.46059 21198 ft 373 kts 212°
2026-05-06 13:19 52.93998 6.43820 20779 ft 370 kts 212°
2026-05-06 13:20 52.91818 6.41611 20368 ft 369 kts 212°
2026-05-06 13:20 52.89648 6.39413 19957 ft 367 kts 213°
2026-05-06 13:20 52.87459 6.37197 19545 ft 366 kts 213°
2026-05-06 13:20 52.85309 6.35022 19143 ft 364 kts 213°
2026-05-06 13:21 52.83145 6.32834 18737 ft 363 kts 212°
2026-05-06 13:21 52.80990 6.30658 18335 ft 362 kts 212°
2026-05-06 13:21 52.78864 6.28511 17936 ft 360 kts 212°
2026-05-06 13:21 52.76744 6.26372 17554 ft 359 kts 212°
2026-05-06 13:22 52.74608 6.24219 17163 ft 357 kts 212°
2026-05-06 13:22 52.72613 6.21888 16951 ft 353 kts 227°
2026-05-06 13:22 52.71269 6.18525 16653 ft 352 kts 247°
2026-05-06 13:22 52.70263 6.14900 16267 ft 352 kts 245°
2026-05-06 13:23 52.69161 6.11322 15888 ft 350 kts 243°
2026-05-06 13:23 52.68029 6.07798 15511 ft 347 kts 243°
2026-05-06 13:23 52.66888 6.04302 15124 ft 346 kts 243°
2026-05-06 13:23 52.65738 6.00804 14739 ft 345 kts 243°
2026-05-06 13:24 52.64595 5.97341 14360 ft 344 kts 243°
2026-05-06 13:24 52.63466 5.93925 13977 ft 342 kts 243°
2026-05-06 13:24 52.62328 5.90493 13611 ft 341 kts 243°
2026-05-06 13:24 52.61193 5.87070 13226 ft 339 kts 243°
2026-05-06 13:25 52.60070 5.83688 12834 ft 337 kts 243°
2026-05-06 13:25 52.58956 5.80341 12488 ft 328 kts 243°
2026-05-06 13:25 52.57876 5.77099 12086 ft 318 kts 243°
2026-05-06 13:25 52.56846 5.74009 11764 ft 309 kts 243°
2026-05-06 13:26 52.55831 5.70970 11417 ft 300 kts 243°
2026-05-06 13:26 52.54837 5.67999 11086 ft 293 kts 243°
2026-05-06 13:26 52.53866 5.65097 10758 ft 291 kts 243°
2026-05-06 13:26 52.52891 5.62189 10451 ft 292 kts 243°
2026-05-06 13:27 52.51910 5.59263 10126 ft 293 kts 243°
2026-05-06 13:27 52.50998 5.56308 9802 ft 290 kts 251°
2026-05-06 13:27 52.50328 5.53211 9819 ft 289 kts 252°
2026-05-06 13:27 52.49657 5.50090 9824 ft 291 kts 252°
2026-05-06 13:28 52.48994 5.47011 9826 ft 291 kts 252°
2026-05-06 13:28 52.48313 5.43855 9840 ft 291 kts 252°
2026-05-06 13:28 52.47641 5.40738 9846 ft 291 kts 252°
2026-05-06 13:28 52.46973 5.37648 9859 ft 291 kts 252°
2026-05-06 13:29 52.46291 5.34495 9851 ft 291 kts 251°
2026-05-06 13:29 52.45612 5.31366 9835 ft 291 kts 251°
2026-05-06 13:29 52.44939 5.28264 9864 ft 290 kts 251°
2026-05-06 13:29 52.44268 5.25181 9875 ft 290 kts 251°
2026-05-06 13:30 52.43589 5.22062 9882 ft 290 kts 251°
2026-05-06 13:30 52.42915 5.18969 9876 ft 291 kts 251°
2026-05-06 13:30 52.42227 5.15822 9851 ft 291 kts 251°
2026-05-06 13:30 52.41550 5.12729 9883 ft 292 kts 251°
2026-05-06 13:31 52.40866 5.09606 9861 ft 292 kts 251°
2026-05-06 13:31 52.40181 5.06483 9847 ft 291 kts 251°
2026-05-06 13:31 52.39491 5.03344 9850 ft 291 kts 251°
2026-05-06 13:31 52.38814 5.00270 9842 ft 291 kts 251°
2026-05-06 13:32 52.38141 4.97216 9790 ft 279 kts 251°
2026-05-06 13:32 52.37494 4.94288 9617 ft 268 kts 251°
2026-05-06 13:32 52.36866 4.91448 9312 ft 262 kts 251°
2026-05-06 13:32 52.36251 4.88668 9052 ft 256 kts 252°
2026-05-06 13:33 52.35655 4.85979 8787 ft 253 kts 252°
2026-05-06 13:33 52.35056 4.83279 8518 ft 252 kts 251°
2026-05-06 13:33 52.34454 4.80566 8242 ft 253 kts 252°
2026-05-06 13:33 52.33850 4.77853 7959 ft 254 kts 251°
2026-05-06 13:34 52.33364 4.75107 7675 ft 251 kts 271°
2026-05-06 13:34 52.33613 4.72338 7504 ft 247 kts 285°
2026-05-06 13:34 52.33986 4.69599 7224 ft 248 kts 285°
2026-05-06 13:34 52.34367 4.66833 6943 ft 247 kts 285°
2026-05-06 13:35 52.34553 4.64037 6661 ft 249 kts 260°
2026-05-06 13:35 52.33852 4.61456 6420 ft 252 kts 240°
2026-05-06 13:35 52.32929 4.59015 6109 ft 253 kts 239°
2026-05-06 13:35 52.31994 4.56569 5818 ft 251 kts 239°
2026-05-06 13:36 52.31077 4.54183 5561 ft 250 kts 239°
2026-05-06 13:36 52.30143 4.51762 5277 ft 250 kts 239°
2026-05-06 13:36 52.29210 4.49350 4994 ft 249 kts 239°
2026-05-06 13:36 52.28286 4.46964 4709 ft 248 kts 239°
2026-05-06 13:37 52.27310 4.44708 4430 ft 248 kts 221°
2026-05-06 13:37 52.26377 4.43795 4297 ft 246 kts 195°
2026-05-06 13:37 52.23810 4.44470 3738 ft 240 kts 146°
2026-05-06 13:38 52.22083 4.46366 3311 ft 232 kts 125°
2026-05-06 13:38 52.21273 4.49182 3016 ft 217 kts 105°
2026-05-06 13:38 52.20867 4.51503 2749 ft 209 kts 86°
2026-05-06 13:38 52.21259 4.53605 2597 ft 192 kts 59°
2026-05-06 13:39 52.21896 4.55362 2424 ft 184 kts 58°
2026-05-06 13:39 52.22560 4.57144 2148 ft 169 kts 57°
2026-05-06 13:39 52.23140 4.58680 1957 ft 150 kts 57°
2026-05-06 13:39 52.23639 4.59998 1894 ft 124 kts 57°
2026-05-06 13:40 52.24029 4.61120 1764 ft 109 kts 55°
2026-05-06 13:40 52.24436 4.62169 1636 ft 110 kts 55°
2026-05-06 13:40 52.24851 4.63238 1510 ft 112 kts 56°
2026-05-06 13:40 52.25269 4.64319 1361 ft 113 kts 56°
2026-05-06 13:41 52.25691 4.65408 1207 ft 114 kts 57°
2026-05-06 13:41 52.26111 4.66492 1053 ft 114 kts 57°
2026-05-06 13:41 52.26541 4.67605 896 ft 115 kts 57°
2026-05-06 13:41 52.26963 4.68696 742 ft 115 kts 59°
2026-05-06 13:42 52.27399 4.69811 572 ft 115 kts 56°
2026-05-06 13:42 52.27835 4.70886 401 ft 116 kts 57°
2026-05-06 13:42 52.28258 4.71992 272 ft 115 kts 58°
2026-05-06 13:42 52.28686 4.73121 123 ft 116 kts 58°
2026-05-06 13:43 52.29117 4.74248 2 ft 115 kts 58°
2026-05-06 13:43 52.29475 4.75192 -1 ft 76 kts 58°
2026-05-06 13:43 52.29682 4.75703 -1 ft 28 kts 37°
2026-05-06 13:43 52.29797 4.75815 -1 ft 7 kts 28°
2026-05-06 13:44 52.29843 4.75857 -1 ft 8 kts 29°
2026-05-06 13:44 52.29896 4.75902 -1 ft 9 kts 27°
2026-05-06 13:44 52.29932 4.75933 -1 ft 0 kts 28°
2026-05-06 13:45 52.29934 4.75934 -1 ft 0 kts 28°
2026-05-06 13:45 52.29976 4.75972 -1 ft 6 kts 33°
2026-05-06 13:45 52.30011 4.76039 -1 ft 9 kts 57°
2026-05-06 13:46 52.30051 4.76142 -1 ft 12 kts 58°
2026-05-06 13:46 52.30101 4.76272 -1 ft 14 kts 58°
2026-05-06 13:46 52.30160 4.76429 -1 ft 17 kts 59°
2026-05-06 13:46 52.30223 4.76593 -1 ft 17 kts 58°
2026-05-06 13:47 52.30289 4.76763 -1 ft 18 kts 57°
2026-05-06 13:47 52.30358 4.76941 -1 ft 17 kts 58°
2026-05-06 13:47 52.30434 4.77037 -1 ft 13 kts 344°
2026-05-06 13:47 52.30521 4.76956 -1 ft 14 kts 328°
2026-05-06 13:48 52.30593 4.76867 -1 ft 10 kts 297°
2026-05-06 13:48 52.30638 4.76771 -1 ft 8 kts 325°
2026-05-06 13:48 52.30652 4.76700 -1 ft 7 kts 239°
2026-05-06 13:48 52.30629 4.76644 -1 ft 0 kts 238°
2026-05-06 13:49 52.30627 4.76639 -1 ft 0 kts 238°
2026-05-06 13:49 52.30627 4.76638 -1 ft 0 kts 238°